EW7508 Weather Reports


time (UTC)temp
F
wind
direction
speed
knots
gust
knots
rain 1hr
in
rain 24hr
in
rain mn
in
humidity
%
barometer
mb
20260506134548 46 274 5.2 10.4 0.00 0.00 0.00 62 1011.3
20260506133045 46 260 6.1 11.3 0.00 0.00 0.00 64 1011.4
20260506131557 46 275 6.1 13.9 0.00 0.00 0.00 63 1011.2
20260506130051 46 267 5.2 13.9 0.00 0.00 0.00 65 1011.2
20260506124542 46 280 6.1 13.0 0.00 0.00 0.00 66 1011.1
20260506123041 47 258 5.2 14.8 0.00 0.00 0.00 64 1011.1
20260506121538 46 324 5.2 11.3 0.00 0.00 0.00 64 1011.0
20260506120036 46 323 4.3 13.9 0.00 0.00 0.00 67 1011.0
20260506114534 46 316 5.2 15.6 0.00 0.00 0.00 66 1010.9
20260506113032 45 326 3.5 14.8 0.00 0.00 0.00 70 1010.8
20260506111530 45 260 7.0 12.2 0.00 0.00 0.00 69 1010.7
20260506110028 45 303 7.0 13.9 0.00 0.00 0.00 68 1010.5
20260506104624 42 330 5.2 13.9 0.00 0.00 0.00 76 1010.4
20260506103031 42 327 6.1 13.0 0.00 0.00 0.00 77 1010.3
20260506101516 41 293 5.2 12.2 0.00 0.00 0.00 77 1010.2
20260506100012 41 320 6.1 13.9 0.00 0.00 0.00 77 1010.1
20260506094507 41 315 6.1 14.8 0.00 0.00 0.00 77 1009.9
20260506093005 41 287 6.1 12.2 0.00 0.00 0.00 77 1009.7
20260506091559 41 321 6.1 10.4 0.00 0.00 0.00 78 1009.6
20260506090054 40 316 5.2 12.2 0.00 0.00 0.00 77 1009.4
20260506084550 40 298 5.2 12.2 0.00 0.00 0.00 76 1009.3
20260506083045 40 324 5.2 8.7 0.00 0.00 0.00 76 1009.1
20260506081543 40 315 5.2 11.3 0.00 0.00 0.00 78 1009.1
20260506073027 39 328 6.1 10.4 0.00 0.00 0.00 77 1008.5
20260506071524 39 237 5.2 10.4 0.00 0.00 0.00 78 1008.3
20260506061506 40 352 7.0 13.0 0.00 0.00 0.00 75 1007.9
20260506044610 38 316 13.0 19.1 0.00 0.00 0.00 76 1007.2
20260506043054 38 328 13.0 20.9 0.00 0.00 0.00 76 1007.0
20260506041551 38 337 13.0 20.0 0.00 0.00 0.00 75 1006.9
20260506040047 38 332 12.2 21.7 0.00 0.00 0.00 75 1006.8
20260506034545 38 335 12.2 21.7 0.00 0.00 0.00 75 1006.7
20260506033041 38 330 13.9 20.9 0.00 0.00 0.00 74 1006.4
20260506031541 38 317 12.2 20.9 0.00 0.00 0.00 75 1006.5
20260506030038 38 327 12.2 20.0 0.00 0.00 0.00 75 1006.3
20260506024546 38 326 13.0 19.1 0.00 0.00 0.00 75 1006.2
20260506023032 38 333 14.8 20.9 0.00 0.00 0.00 74 1006.1
20260506021529 38 326 13.0 21.7 0.00 0.00 0.00 75 1005.9
20260506020029 38 332 13.0 20.0 0.00 0.00 0.00 73 1005.9
20260506014528 39 333 12.2 20.9 0.00 0.00 0.00 74 1005.8
20260506013020 39 355 12.2 17.4 0.00 0.00 0.00 74 1005.7
20260506011518 39 337 12.2 17.4 0.00 0.00 0.00 73 1005.5
20260506010017 39 330 13.0 21.7 0.00 0.00 0.00 73 1005.5
20260506004513 39 328 13.0 18.2 0.00 0.00 0.00 73 1005.4
20260506003014 39 358 12.2 17.4 0.00 0.00 0.00 74 1005.1
20260506001509 39 332 12.2 18.2 0.00 0.00 0.00 72 1005.0
20260506000007 40 332 10.4 20.9 0.00 0.00 0.00 72 1004.9
20260505234503 40 345 11.3 20.0 0.00 0.00 0.00 71 1004.8
20260505233100 40 347 10.4 21.7 0.00 0.00 0.00 72 1004.8
20260505231604 41 325 13.0 20.0 0.00 0.00 0.00 73 1004.7
20260505230100 41 320 15.6 20.0 0.00 0.00 0.00 71 1004.6
20260505224553 41 349 11.3 15.6 0.00 0.00 0.00 71 1004.6
20260505223047 41 334 13.0 18.2 0.00 0.00 0.00 69 1004.5
20260505221545 41 337 10.4 17.4 0.00 0.00 0.00 70 1004.4
20260505220043 41 330 7.8 15.6 0.00 0.00 0.00 72 1004.3
20260505214542 41 326 8.7 16.5 0.00 0.00 0.00 70 1004.2
20260505213051 41 337 8.7 14.8 0.00 0.00 0.00 71 1004.2
20260505211537 42 330 9.6 15.6 0.00 0.00 0.00 70 1004.1
20260505210035 42 347 8.7 14.8 0.00 0.00 0.00 72 1004.0
20260505204532 42 345 9.6 14.8 0.00 0.00 0.00 70 1003.9
20260505203030 42 341 9.6 19.1 0.00 0.00 0.00 69 1003.8
20260505201529 42 330 11.3 15.6 0.00 0.00 0.00 69 1003.7
20260505200029 42 326 10.4 15.6 0.00 0.00 0.00 72 1003.6
20260505194527 42 336 7.0 14.8 0.00 0.02 0.00 77 1003.4
20260505193024 42 267 2.6 7.8 0.00 0.02 0.00 75 1003.4
20260505191524 43 333 1.7 7.8 0.00 0.02 0.00 74 1003.3
20260505190023 43 305 1.7 10.4 0.00 0.02 0.00 73 1003.2
20260505184522 43 247 4.3 13.0 0.00 0.06 0.00 73 1003.2
20260505183120 43 274 4.3 12.2 0.00 0.06 0.00 74 1003.0
20260505181518 43 297 3.5 9.6 0.00 0.06 0.00 72 1002.9
20260505180038 44 304 5.2 9.6 0.00 0.06 0.00 71 1002.9
20260505174517 44 257 5.2 11.3 0.00 0.06 0.00 71 1002.8
20260505173015 44 298 3.5 10.4 0.00 0.06 0.00 69 1002.8
20260505171514 44 299 5.2 12.2 0.00 0.06 0.00 70 1002.8
20260505170013 45 270 4.3 13.0 0.00 0.06 0.00 71 1002.7
20260505164512 45 299 3.5 9.6 0.00 0.06 0.00 69 1002.7
20260505163010 45 269 4.3 12.2 0.00 0.06 0.00 67 1002.6
20260505161509 46 297 3.5 12.2 0.00 0.06 0.00 60 1002.6
20260505153010 46 284 9.6 17.4 0.00 0.06 0.00 58 1002.4
20260505151604 46 334 6.1 15.6 0.00 0.06 0.00 64 1002.4